Time,TemperatureF,DewpointF,PressureIn,WindDirection,WindDirectionDegrees,WindSpeedMPH,WindSpeedGustMPH,Humidity,HourlyPrecipIn,Conditions,Clouds,dailyrainin,SoftwareType,DateUTC
2013-06-24 00:02:00,73.0,69.0,30.03,WNW,302,1.0,3.0,86,78.14,,,-99.99,,2013-06-24 05:02:00,
2013-06-24 00:12:00,73.0,69.0,30.03,NW,304,0.0,1.0,87,78.14,,,-99.99,,2013-06-24 05:12:00,
2013-06-24 00:22:00,73.0,69.0,30.03,North,0,0.0,0.0,88,78.14,,,-99.99,,2013-06-24 05:22:00,
2013-06-24 00:35:00,72.0,68.0,30.04,North,0,0.0,0.0,88,78.14,,,-99.99,,2013-06-24 05:35:00,
2013-06-24 00:53:00,72.0,69.0,30.04,NW,314,0.0,2.0,89,78.14,,,-99.99,,2013-06-24 05:53:00,
2013-06-24 01:07:00,72.0,69.0,30.03,North,0,0.0,0.0,89,78.14,,,-99.99,,2013-06-24 06:07:00,
2013-06-24 01:13:00,71.0,68.0,30.03,WSW,242,0.0,0.0,90,78.14,,,-99.99,,2013-06-24 06:13:00,
2013-06-24 01:23:00,71.0,68.0,30.03,SSW,205,0.0,1.0,91,78.14,,,-99.99,,2013-06-24 06:23:00,
2013-06-24 01:36:00,71.0,69.0,30.03,West,259,0.0,2.0,92,78.14,,,-99.99,,2013-06-24 06:36:00,
2013-06-24 01:44:00,71.0,69.0,30.03,West,259,0.0,2.0,92,78.14,,,-99.99,,2013-06-24 06:44:00,
2013-06-24 01:52:00,71.0,69.0,30.03,North,0,0.0,0.0,94,78.14,,,-99.99,,2013-06-24 06:52:00,
2013-06-24 02:05:00,71.0,69.0,30.03,SW,233,1.0,5.0,94,78.14,,,-99.99,,2013-06-24 07:05:00,
2013-06-24 02:14:00,71.0,69.0,30.03,NW,326,1.0,3.0,94,78.14,,,-99.99,,2013-06-24 07:14:00,
2013-06-24 02:29:00,71.0,69.0,30.03,NW,305,1.0,5.0,94,78.14,,,-99.99,,2013-06-24 07:29:00,
2013-06-24 02:36:00,70.0,68.0,30.02,SW,221,0.0,1.0,95,78.14,,,-99.99,,2013-06-24 07:36:00,
2013-06-24 02:46:00,70.0,68.0,30.02,South,179,0.0,1.0,95,78.14,,,-99.99,,2013-06-24 07:46:00,
2013-06-24 03:04:00,70.0,68.0,30.02,North,0,0.0,0.0,95,78.14,,,-99.99,,2013-06-24 08:04:00,
2013-06-24 03:14:00,70.0,68.0,30.02,North,0,0.0,0.0,95,78.14,,,-99.99,,2013-06-24 08:14:00,
2013-06-24 03:15:00,68.0,67.0,30.01,North,0,0.0,0.0,97,78.14,,,-99.99,,2013-06-24 08:15:00,
2013-06-24 03:26:00,69.0,68.0,30.01,SSE,167,0.0,2.0,96,78.14,,,-99.99,,2013-06-24 08:26:00,
2013-06-24 03:35:00,68.0,67.0,30.01,North,0,0.0,0.0,97,78.14,,,-99.99,,2013-06-24 08:35:00,
2013-06-24 03:47:00,68.0,67.0,30.01,North,0,0.0,0.0,97,78.14,,,-99.99,,2013-06-24 08:47:00,
2013-06-24 03:55:00,68.0,67.0,30.01,North,0,0.0,0.0,97,78.14,,,-99.99,,2013-06-24 08:55:00,
2013-06-24 04:05:00,68.0,67.0,30.01,North,0,0.0,0.0,97,78.14,,,-99.99,,2013-06-24 09:05:00,
2013-06-24 04:27:00,67.0,66.0,30.02,North,0,0.0,0.0,97,78.14,,,-99.99,,2013-06-24 09:27:00,
2013-06-24 04:38:00,67.0,66.0,30.02,SW,236,0.0,2.0,97,78.14,,,-99.99,,2013-06-24 09:38:00,
2013-06-24 05:00:00,67.0,66.0,30.02,WNW,288,1.0,4.0,97,78.14,,,-99.99,,2013-06-24 10:00:00,
2013-06-24 05:14:00,67.0,66.0,30.02,SW,235,0.0,3.0,97,78.14,,,-99.99,,2013-06-24 10:14:00,
2013-06-24 05:24:00,67.0,66.0,30.02,SW,235,0.0,3.0,97,78.14,,,-99.99,,2013-06-24 10:24:00,
2013-06-24 05:37:00,67.0,66.0,30.03,WNW,294,1.0,3.0,96,78.14,,,-99.99,,2013-06-24 10:37:00,
2013-06-24 05:58:00,67.0,66.0,30.04,NW,319,0.0,3.0,97,78.14,,,-99.99,,2013-06-24 10:58:00,
2013-06-24 06:14:00,67.0,66.0,30.04,WSW,249,0.0,1.0,97,78.14,,,-99.99,,2013-06-24 11:14:00,
2013-06-24 06:28:00,67.0,66.0,30.05,NNW,329,0.0,3.0,97,78.14,,,-99.99,,2013-06-24 11:28:00,
2013-06-24 06:34:00,67.0,66.0,30.07,West,271,1.0,4.0,97,78.14,,,-99.99,,2013-06-24 11:34:00,
2013-06-24 06:45:00,67.0,66.0,30.08,North,0,0.0,0.0,97,78.14,,,-99.99,,2013-06-24 11:45:00,
2013-06-24 06:55:00,67.0,66.0,30.07,North,0,0.0,0.0,97,78.14,,,-99.99,,2013-06-24 11:55:00,
2013-06-24 07:05:00,67.0,66.0,30.07,North,0,0.0,0.0,97,78.14,,,-99.99,,2013-06-24 12:05:00,
2013-06-24 07:16:00,68.0,67.0,30.07,WNW,294,0.0,0.0,97,78.14,,,-99.99,,2013-06-24 12:16:00,
2013-06-24 07:23:00,68.0,67.0,30.08,SSW,200,0.0,2.0,97,78.14,,,-99.99,,2013-06-24 12:23:00,
2013-06-24 07:36:00,68.0,67.0,30.09,SW,222,0.0,0.0,97,78.14,,,-99.99,,2013-06-24 12:36:00,
2013-06-24 07:53:00,69.0,68.0,30.08,SW,228,0.0,2.0,96,78.14,,,-99.99,,2013-06-24 12:53:00,
2013-06-24 08:06:00,69.0,67.0,30.08,West,280,1.0,3.0,94,78.14,,,-99.99,,2013-06-24 13:06:00,
2013-06-24 08:14:00,70.0,68.0,30.08,WNW,298,1.0,5.0,92,78.14,,,-99.99,,2013-06-24 13:14:00,
2013-06-24 08:24:00,71.0,68.0,30.08,WSW,239,1.0,3.0,90,78.14,,,-99.99,,2013-06-24 13:24:00,
2013-06-24 08:36:00,71.0,67.0,30.08,SW,221,2.0,5.0,88,78.14,,,-99.99,,2013-06-24 13:36:00,
2013-06-24 08:43:00,72.0,68.0,30.08,WSW,243,1.0,4.0,86,78.14,,,-99.99,,2013-06-24 13:43:00,
2013-06-24 09:02:00,72.0,67.0,30.09,SE,139,1.0,2.0,83,78.14,,,-99.99,,2013-06-24 14:02:00,
2013-06-24 09:16:00,72.0,67.0,30.09,WNW,294,1.0,2.0,83,78.14,,,-99.99,,2013-06-24 14:16:00,
2013-06-24 09:24:00,72.0,67.0,30.09,WNW,294,1.0,2.0,83,78.14,,,-99.99,,2013-06-24 14:24:00,
2013-06-24 09:36:00,73.0,67.0,30.10,North,0,0.0,0.0,82,78.14,,,-99.99,,2013-06-24 14:36:00,
2013-06-24 09:45:00,73.0,67.0,30.10,West,259,0.0,1.0,81,78.14,,,-99.99,,2013-06-24 14:45:00,
2013-06-24 09:56:00,73.0,67.0,30.10,North,0,0.0,0.0,81,78.14,,,-99.99,,2013-06-24 14:56:00,
2013-06-24 10:05:00,74.0,67.0,30.10,WNW,290,1.0,5.0,79,78.14,,,-99.99,,2013-06-24 15:05:00,
2013-06-24 10:13:00,74.0,67.0,30.10,South,188,1.0,3.0,79,78.14,,,-99.99,,2013-06-24 15:13:00,
2013-06-24 10:27:00,75.0,68.0,30.09,South,187,1.0,3.0,78,78.14,,,-99.99,,2013-06-24 15:27:00,
2013-06-24 10:45:00,75.0,67.0,30.09,WNW,290,2.0,5.0,76,78.14,,,-99.99,,2013-06-24 15:45:00,
2013-06-24 10:54:00,76.0,68.0,30.08,SSW,204,2.0,7.0,77,78.14,,,-99.99,,2013-06-24 15:54:00,
2013-06-24 11:03:00,76.0,69.0,30.08,South,190,2.0,5.0,78,78.14,,,-99.99,,2013-06-24 16:03:00,
2013-06-24 11:23:00,78.0,69.0,30.08,SSW,198,2.0,5.0,73,78.14,,,-99.99,,2013-06-24 16:23:00,
2013-06-24 11:35:00,80.0,69.0,30.08,WSW,245,2.0,6.0,70,78.14,,,-99.99,,2013-06-24 16:35:00,
2013-06-24 11:43:00,81.0,69.0,30.08,WSW,250,2.0,6.0,67,78.14,,,-99.99,,2013-06-24 16:43:00,
2013-06-24 11:55:00,82.0,69.0,30.08,WSW,253,2.0,4.0,66,78.14,,,-99.99,,2013-06-24 16:55:00,
2013-06-24 12:05:00,82.0,68.0,30.07,West,269,3.0,8.0,62,78.14,,,-99.99,,2013-06-24 17:05:00,
2013-06-24 12:14:00,83.0,69.0,30.07,West,267,3.0,9.0,62,78.14,,,-99.99,,2013-06-24 17:14:00,
2013-06-24 12:24:00,83.0,69.0,30.06,West,267,2.0,6.0,62,78.14,,,-99.99,,2013-06-24 17:24:00,
2013-06-24 12:55:00,84.0,69.0,30.04,WSW,249,3.0,8.0,60,78.14,,,-99.99,,2013-06-24 17:55:00,
2013-06-24 13:02:00,85.0,70.0,30.03,SW,229,2.0,6.0,61,78.14,,,-99.99,,2013-06-24 18:02:00,
2013-06-24 13:14:00,85.0,69.0,30.03,WSW,255,2.0,5.0,59,78.14,,,-99.99,,2013-06-24 18:14:00,
2013-06-24 13:25:00,85.0,69.0,30.03,SW,236,3.0,9.0,59,78.14,,,-99.99,,2013-06-24 18:25:00,
2013-06-24 13:35:00,85.0,69.0,30.02,West,262,3.0,9.0,59,78.14,,,-99.99,,2013-06-24 18:35:00,
2013-06-24 13:46:00,86.0,70.0,30.02,SSW,193,3.0,8.0,59,78.14,,,-99.99,,2013-06-24 18:46:00,
2013-06-24 13:53:00,86.0,70.0,30.02,WSW,255,2.0,8.0,59,78.14,,,-99.99,,2013-06-24 18:53:00,
2013-06-24 14:06:00,86.0,71.0,30.02,SSW,194,3.0,9.0,61,78.14,,,-99.99,,2013-06-24 19:06:00,
2013-06-24 14:13:00,86.0,72.0,30.01,NW,322,3.0,9.0,63,78.14,,,-99.99,,2013-06-24 19:13:00,
2013-06-24 14:25:00,86.0,71.0,30.01,West,262,2.0,6.0,62,78.14,,,-99.99,,2013-06-24 19:25:00,
2013-06-24 14:36:00,87.0,72.0,30.01,South,174,3.0,8.0,62,78.14,,,-99.99,,2013-06-24 19:36:00,
2013-06-24 14:45:00,86.0,71.0,30.00,NNW,329,3.0,7.0,62,78.14,,,-99.99,,2013-06-24 19:45:00,
2013-06-24 14:54:00,87.0,71.0,30.01,WSW,239,3.0,7.0,60,78.14,,,-99.99,,2013-06-24 19:54:00,
2013-06-24 15:04:00,88.0,72.0,30.01,SW,224,3.0,9.0,59,78.14,,,-99.99,,2013-06-24 20:04:00,
2013-06-24 15:12:00,87.0,71.0,30.00,West,276,3.0,8.0,60,78.14,,,-99.99,,2013-06-24 20:12:00,
2013-06-24 15:24:00,87.0,72.0,30.00,WNW,302,3.0,7.0,61,78.14,,,-99.99,,2013-06-24 20:24:00,
2013-06-24 15:34:00,88.0,73.0,30.00,SSW,197,3.0,7.0,61,78.14,,,-99.99,,2013-06-24 20:34:00,
2013-06-24 15:45:00,88.0,71.0,29.99,West,259,4.0,10.0,57,78.14,,,-99.99,,2013-06-24 20:45:00,
2013-06-24 15:54:00,88.0,72.0,29.99,SW,222,4.0,12.0,59,78.14,,,-99.99,,2013-06-24 20:54:00,
2013-06-24 16:03:00,88.0,72.0,29.98,WSW,240,3.0,11.0,60,78.14,,,-99.99,,2013-06-24 21:03:00,
2013-06-24 16:13:00,89.0,72.0,29.98,South,177,2.0,7.0,58,78.14,,,-99.99,,2013-06-24 21:13:00,
2013-06-24 16:25:00,89.0,71.0,29.98,SW,226,4.0,8.0,56,78.14,,,-99.99,,2013-06-24 21:25:00,
2013-06-24 16:37:00,89.0,72.0,29.97,WNW,291,3.0,10.0,57,78.14,,,-99.99,,2013-06-24 21:37:00,
2013-06-24 16:46:00,88.0,71.0,29.97,SW,229,3.0,8.0,58,78.14,,,-99.99,,2013-06-24 21:46:00,
2013-06-24 16:53:00,89.0,72.0,29.97,WSW,257,3.0,11.0,57,78.14,,,-99.99,,2013-06-24 21:53:00,
2013-06-24 17:04:00,89.0,73.0,29.98,WNW,298,4.0,9.0,59,78.14,,,-99.99,,2013-06-24 22:04:00,
2013-06-24 17:23:00,88.0,72.0,29.98,West,273,3.0,9.0,60,78.14,,,-99.99,,2013-06-24 22:23:00,
2013-06-24 17:36:00,87.0,71.0,29.99,SSW,204,6.0,12.0,59,78.14,,,-99.99,,2013-06-24 22:36:00,
2013-06-24 17:46:00,87.0,72.0,29.99,South,181,4.0,9.0,61,78.14,,,-99.99,,2013-06-24 22:46:00,
2013-06-24 18:05:00,86.0,72.0,30.00,West,274,3.0,9.0,64,78.14,,,-99.99,,2013-06-24 23:05:00,
2013-06-24 18:13:00,86.0,72.0,29.99,SW,214,3.0,6.0,64,78.14,,,-99.99,,2013-06-24 23:13:00,
2013-06-24 18:26:00,86.0,72.0,29.99,SW,236,3.0,7.0,63,78.14,,,-99.99,,2013-06-24 23:26:00,
2013-06-24 18:34:00,86.0,72.0,29.98,SSW,198,3.0,7.0,64,78.14,,,-99.99,,2013-06-24 23:34:00,
2013-06-24 18:44:00,86.0,72.0,29.98,West,263,3.0,9.0,64,78.14,,,-99.99,,2013-06-24 23:44:00,
2013-06-24 18:53:00,86.0,73.0,29.99,WNW,295,3.0,7.0,65,78.14,,,-99.99,,2013-06-24 23:53:00,
2013-06-24 19:04:00,86.0,73.0,29.99,WNW,295,3.0,7.0,65,78.14,,,-99.99,,2013-06-25 00:04:00,
2013-06-24 19:12:00,86.0,73.0,29.99,WNW,302,3.0,7.0,65,78.14,,,-99.99,,2013-06-25 00:12:00,
2013-06-24 19:23:00,85.0,73.0,30.00,NW,309,2.0,6.0,67,78.14,,,-99.99,,2013-06-25 00:23:00,
2013-06-24 19:34:00,84.0,72.0,29.99,West,260,2.0,5.0,68,78.14,,,-99.99,,2013-06-25 00:34:00,
2013-06-24 19:46:00,84.0,72.0,29.98,NW,321,2.0,7.0,68,78.14,,,-99.99,,2013-06-25 00:46:00,
2013-06-24 19:54:00,84.0,73.0,29.99,SW,236,0.0,1.0,70,78.14,,,-99.99,,2013-06-25 00:54:00,
2013-06-24 20:03:00,83.0,73.0,30.00,NNE,14,2.0,8.0,73,78.14,,,-99.99,,2013-06-25 01:03:00,
2013-06-24 20:44:00,76.0,62.0,29.98,SW,229,1.0,3.0,63,78.14,,,-99.99,,2013-06-25 01:44:00,
2013-06-24 20:55:00,77.0,64.0,29.96,SW,235,1.0,4.0,64,78.14,,,-99.99,,2013-06-25 01:55:00,
2013-06-24 21:05:00,77.0,65.0,29.94,WSW,252,2.0,6.0,67,78.14,,,-99.99,,2013-06-25 02:05:00,
2013-06-24 21:15:00,74.0,66.0,29.94,West,281,0.0,3.0,76,78.15,,,-99.99,,2013-06-25 02:15:00,
2013-06-24 21:35:00,73.0,68.0,29.93,SSW,197,2.0,5.0,83,78.15,,,-99.99,,2013-06-25 02:35:00,
2013-06-24 21:44:00,75.0,69.0,29.93,SE,129,3.0,7.0,83,78.15,,,-99.99,,2013-06-25 02:44:00,
2013-06-24 21:56:00,76.0,71.0,29.94,SSW,194,2.0,5.0,84,78.15,,,-99.99,,2013-06-25 02:56:00,
2013-06-24 22:14:00,77.0,73.0,29.95,West,274,2.0,6.0,87,78.15,,,-99.99,,2013-06-25 03:14:00,
2013-06-24 22:42:00,77.0,73.0,29.96,SW,222,2.0,8.0,88,78.15,,,-99.99,,2013-06-25 03:42:00,
2013-06-24 22:51:00,77.0,73.0,29.97,WSW,239,2.0,5.0,88,78.15,,,-99.99,,2013-06-25 03:51:00,
2013-06-24 22:58:00,77.0,74.0,29.96,NW,321,2.0,7.0,89,78.15,,,-99.99,,2013-06-25 03:58:00,
2013-06-24 23:02:00,77.0,73.0,29.97,NNW,338,1.0,4.0,87,78.15,,,-99.99,,2013-06-25 04:02:00,
2013-06-24 23:11:00,77.0,72.0,29.96,WSW,255,3.0,12.0,86,78.15,,,-99.99,,2013-06-25 04:11:00,
2013-06-24 23:22:00,77.0,72.0,29.97,NNW,340,2.0,6.0,85,78.15,,,-99.99,,2013-06-25 04:22:00,
2013-06-24 23:34:00,77.0,72.0,29.97,WNW,284,2.0,6.0,85,78.15,,,-99.99,,2013-06-25 04:34:00,
2013-06-24 23:43:00,77.0,71.0,29.97,SW,231,2.0,10.0,82,78.15,,,-99.99,,2013-06-25 04:43:00,
2013-06-24 23:52:00,77.0,71.0,29.97,SW,231,2.0,10.0,82,78.15,,,-99.99,,2013-06-25 04:52:00,